Fosston, MN

3:08 PM CST on December 06, 2016 (GMT -0600)
Fosston Municipal

Weather History for KFSE - December, 2010

Change the Weather History Date:

Tuesday, December 21, 2010

  Actual Average Record
Temperature  
Mean Temperature 22 °F -  
Max Temperature 26 °F 18 °F 55 °F (2003)
Min Temperature 19 °F -3 °F -32 °F (1963)
Degree Days  
Heating Degree Days 42    
Moisture  
Dew Point 20 °F    
Average Humidity 88    
Maximum Humidity 93    
Minimum Humidity 74    
Precipitation  
Precipitation 0.01 in - - ()
Sea Level Pressure  
Sea Level Pressure 29.92 in    
Wind  
Wind Speed 9 mph (NNE)    
Max Wind Speed 15 mph    
Max Gust Speed 22 mph    
Visibility 8 miles    
Events Snow    
Averages and records for this station are not official NWS values.
T = Trace of Precipitation, MM = Missing Value Source: NWS Daily Summary

Daily Weather History Graph

Daily Weather History Graph

Search for Another Location

Airport or City:

Trip Planner

Search our weather history database for the weather conditions in past years. The results will help you decide how hot, cold, wet, or windy it might be!

Date:

Astronomy

Dec. 21, 2010 Rise Set
Actual Time 8:08 AM CST 4:34 PM CST
Civil Twilight 7:32 AM CST 5:10 PM CST
Nautical Twilight 6:53 AM CST 5:49 PM CST
Astronomical Twilight 6:15 AM CST 6:27 PM CST
Moon 5:06 PM CST (12/21) 8:27 AM CST (12/21)
Length of Visible Light 9h 37m
Length of Day
8h 25m
Full, 100% of the Moon is Illuminated
Dec 21
Full
Dec 27
Last Quarter
Jan 4
New
Jan 12
First Quarter
Jan 19
Full

Hourly Weather History & Observations

Time (CST) Temp. Windchill Dew Point Humidity Pressure Visibility Wind Dir Wind Speed Gust Speed Precip Events Conditions
12:13 AM 19.4 °F 6.0 °F 17.6 °F 93% 29.78 in - ESE 13.8 mph 21.9 mph N/A   Overcast
12:33 AM 19.4 °F 5.5 °F 17.6 °F 93% 29.78 in - ESE 15.0 mph - N/A   Overcast
12:53 AM 19.4 °F 7.2 °F 17.6 °F 93% 29.78 in - ESE 11.5 mph 20.7 mph N/A   Overcast
1:13 AM 19.4 °F 7.2 °F 17.6 °F 93% 29.78 in - ESE 11.5 mph 19.6 mph N/A   Overcast
1:33 AM 19.4 °F 7.2 °F 17.6 °F 93% 29.78 in - ESE 11.5 mph 18.4 mph N/A   Overcast
1:53 AM 19.4 °F 8.6 °F 17.6 °F 93% 29.78 in - ESE 9.2 mph 16.1 mph N/A   Overcast
2:33 AM 19.4 °F 8.6 °F 17.6 °F 93% 29.79 in - ESE 9.2 mph - N/A   Overcast
2:53 AM 19.4 °F 8.6 °F 17.6 °F 93% 29.80 in - ESE 9.2 mph - N/A   Overcast
3:13 AM 19.4 °F 8.6 °F 17.6 °F 93% 29.80 in - ESE 9.2 mph - N/A   Overcast
3:33 AM 21.2 °F 12.6 °F 17.6 °F 86% 29.80 in - ESE 6.9 mph - N/A   Overcast
3:53 AM 21.2 °F 14.9 °F 17.6 °F 86% 29.81 in - ESE 4.6 mph - N/A   Unknown
4:13 AM 21.2 °F - 17.6 °F 86% 29.81 in - Calm Calm - N/A   Overcast
4:33 AM 21.2 °F - 17.6 °F 86% 29.81 in - Calm Calm - N/A   Overcast
4:53 AM 21.2 °F - 19.4 °F 93% 29.82 in - Calm Calm - N/A   Overcast
5:12 AM 21.2 °F 13.6 °F 19.4 °F 93% 29.82 in - ENE 5.8 mph - N/A   Overcast
5:33 AM 21.2 °F - 19.4 °F 93% 29.83 in - Calm Calm - 0.01 in   Overcast
5:55 AM 21.2 °F - 19.4 °F 93% 29.84 in - Calm Calm - N/A   Unknown
5:59 AM 21.2 °F 16.4 °F 19.4 °F 93% 29.84 in - NE 3.5 mph - N/A   Unknown
6:13 AM - - - N/A% 29.84 in - NE 4.6 mph - N/A   Unknown
6:33 AM 21.2 °F 14.9 °F 19.4 °F 93% 29.85 in - ENE 4.6 mph - N/A   Overcast
6:53 AM 21.2 °F 13.6 °F 19.4 °F 93% 29.85 in - NE 5.8 mph - N/A   Overcast
7:33 AM 21.2 °F 14.9 °F 19.4 °F 93% 29.87 in - NNE 4.6 mph - N/A   Overcast
7:53 AM 21.2 °F 14.9 °F 19.4 °F 93% 29.88 in - NNE 4.6 mph - N/A   Overcast
8:14 AM 21.2 °F 14.9 °F 19.4 °F 93% 29.88 in 10.0 mi NE 4.6 mph - N/A   Overcast
8:33 AM 21.2 °F 13.6 °F 19.4 °F 93% 29.89 in 7.0 mi NNE 5.8 mph - N/A Snow Light Snow
9:13 AM 21.2 °F 13.6 °F 19.4 °F 93% 29.91 in 4.0 mi NE 5.8 mph - N/A Snow Light Snow
9:33 AM 21.2 °F 13.6 °F 19.4 °F 93% 29.92 in 3.0 mi NNE 5.8 mph - N/A Snow Light Snow
9:53 AM 21.2 °F 13.6 °F 19.4 °F 93% 29.92 in 4.0 mi NNE 5.8 mph - N/A Snow Light Snow
10:13 AM 21.2 °F 14.9 °F 19.4 °F 93% 29.93 in 4.0 mi NNE 4.6 mph - N/A Snow Light Snow
10:33 AM 19.4 °F 12.8 °F 17.6 °F 93% 29.94 in 1.8 mi North 4.6 mph - N/A Snow Light Snow
10:53 AM 23.0 °F - 19.4 °F 86% 29.94 in 1.5 mi Calm Calm - N/A Snow Light Snow
11:13 AM 24.8 °F 19.1 °F 19.4 °F 80% 29.95 in 2.5 mi North 4.6 mph - N/A Snow Light Snow
11:33 AM 26.6 °F 18.2 °F 21.2 °F 80% 29.95 in 4.0 mi North 8.1 mph - N/A Snow Light Snow
11:53 AM 26.6 °F 16.8 °F 21.2 °F 80% 29.95 in 7.0 mi North 10.4 mph - N/A   Overcast
12:13 PM 24.8 °F 14.0 °F 19.4 °F 80% 29.96 in 10.0 mi North 11.5 mph - N/A   Overcast
12:33 PM 23.0 °F 13.1 °F 19.4 °F 86% 29.97 in 10.0 mi North 9.2 mph - N/A   Overcast
12:53 PM 26.6 °F 16.2 °F 19.4 °F 74% 29.97 in 10.0 mi North 11.5 mph - N/A   Scattered Clouds
1:13 PM 26.6 °F 16.2 °F 21.2 °F 80% 29.97 in 10.0 mi North 11.5 mph - N/A   Mostly Cloudy
1:33 PM 24.8 °F 15.3 °F 21.2 °F 86% 29.98 in 10.0 mi North 9.2 mph - N/A   Overcast
1:53 PM 26.6 °F 16.8 °F 21.2 °F 80% 29.99 in 10.0 mi North 10.4 mph - N/A   Overcast
2:13 PM 24.8 °F 16.1 °F 21.2 °F 86% 29.99 in 10.0 mi North 8.1 mph - N/A   Overcast
2:33 PM 24.8 °F 14.6 °F 21.2 °F 86% 30.01 in 10.0 mi North 10.4 mph - N/A   Overcast
2:53 PM 26.6 °F 15.7 °F 23.0 °F 86% 30.01 in 10.0 mi North 12.7 mph - N/A   Overcast
3:12 PM 26.6 °F 16.8 °F 21.2 °F 80% 30.03 in 10.0 mi NNW 10.4 mph - N/A   Overcast
3:33 PM 24.8 °F 14.6 °F 21.2 °F 86% 30.04 in 10.0 mi North 10.4 mph - N/A   Overcast
3:53 PM 24.8 °F 14.0 °F 21.2 °F 86% 30.06 in 10.0 mi NNW 11.5 mph - N/A   Overcast
4:13 PM 24.8 °F 14.6 °F 21.2 °F 86% 30.07 in 10.0 mi NNW 10.4 mph - N/A   Overcast
4:33 PM 24.8 °F 12.9 °F 21.2 °F 86% 30.08 in 10.0 mi NNW 13.8 mph - N/A   Overcast
4:53 PM 24.8 °F 14.0 °F 21.2 °F 86% 30.09 in 10.0 mi NNW 11.5 mph - N/A   Overcast
5:13 PM 24.8 °F 14.6 °F 21.2 °F 86% 30.11 in 10.0 mi North 10.4 mph - N/A   Overcast
5:33 PM 24.8 °F 14.0 °F 21.2 °F 86% 30.12 in 10.0 mi North 11.5 mph - N/A   Overcast
5:53 PM 24.8 °F 12.4 °F 21.2 °F 86% 30.13 in 10.0 mi NNW 15.0 mph - N/A   Overcast
6:14 PM 24.8 °F 12.9 °F 21.2 °F 86% 30.14 in 10.0 mi North 13.8 mph - N/A   Overcast
6:33 PM 24.8 °F 12.4 °F 21.2 °F 86% 30.15 in 10.0 mi North 15.0 mph - N/A   Overcast
6:53 PM 23.0 °F 10.6 °F 21.2 °F 93% 30.16 in 10.0 mi North 13.8 mph - N/A   Overcast
7:13 PM 23.0 °F 10.1 °F 21.2 °F 93% 30.17 in 10.0 mi North 15.0 mph - N/A   Overcast
7:33 PM 23.0 °F 10.6 °F 21.2 °F 93% 30.18 in 10.0 mi NNW 13.8 mph - N/A   Overcast
7:53 PM 23.0 °F 11.7 °F 21.2 °F 93% 30.18 in 10.0 mi North 11.5 mph - N/A   Overcast
8:13 PM 23.0 °F 11.1 °F 21.2 °F 93% 30.19 in 10.0 mi North 12.7 mph - N/A   Overcast
8:33 PM 23.0 °F 11.7 °F 21.2 °F 93% 30.19 in 10.0 mi North 11.5 mph - N/A   Overcast
9:13 PM 23.0 °F 11.7 °F 21.2 °F 93% 30.21 in 10.0 mi NNW 11.5 mph - N/A   Overcast
9:33 PM 23.0 °F 11.7 °F 21.2 °F 93% 30.21 in 10.0 mi NNW 11.5 mph - N/A   Overcast
9:53 PM 23.0 °F 13.1 °F 19.4 °F 86% 30.23 in 10.0 mi WNW 9.2 mph - N/A   Overcast
10:13 PM 19.4 °F 7.2 °F 17.6 °F 93% 30.24 in 10.0 mi WNW 11.5 mph 16.1 mph N/A   Overcast
10:33 PM 17.6 °F 4.3 °F 15.8 °F 93% 30.25 in 10.0 mi NW 12.7 mph - N/A   Overcast
10:54 PM 17.6 °F 4.3 °F 15.8 °F 93% 30.27 in 10.0 mi NW 12.7 mph - N/A   Overcast
11:13 PM 17.6 °F 3.2 °F 15.8 °F 93% 30.28 in 10.0 mi NW 15.0 mph - N/A   Overcast
11:33 PM 17.6 °F 5.0 °F 15.8 °F 93% 30.28 in 10.0 mi NNW 11.5 mph - N/A   Overcast
11:53 PM 17.6 °F 4.3 °F 15.8 °F 93% 30.29 in 10.0 mi NNW 12.7 mph - N/A   Overcast